UWE-4 (43880 NORAD) Tracking and Keplerian Element Data

This shows tracking and keplerian element data for the satellite.

Feedback or suggestion? Click here.




ElementValue
Catalog43880
NameUWE-4
Epoch Orbit124
Epoch Day17.81579828
Epoch Year2019
RAAN287.9585
Inclination97.7272
Eccentricity0.0012659
Argument of Perigee166.4886
Mean Anonmoly193.6676
Mean Motion14.96112932
Decay Rate4.65E-06
L11 43880U 18111E 19017.81579828 .00000465 00000-0 46443-4 0 9991
L22 43880 97.7272 287.9585 0012659 166.4886 193.6676 14.96112932 1248

Live tracking and technical data element details for UWE-4 (NORAD 43880). UWE-4 can be tracked NOW for your location showing map with azimuth and elevation plus other details from your city location.

Track the satellite on the map from your city or location and see movement details for azimuth, elevation, latitude, longitude, range, height, and movement on the map or in text.







IsCatalogInMostPopularTable: catalog: 43880, numindb: 16
Update: records affected: 1



GetName: 43880 UWE-4

Hit Count: updated at: Fri, 18 Jan 2019 21:58:42 GMT